Location: Sternwarte ZA, Rosenfeld-Brittheim
(48.2889°N, 8.6789°E)
Time: 08:29:36
(UTC+02:00)

ISS - Pass Details

Date: 20 May 2021
Orbit: 417 x 422 km, 51.6° (Epoch: 18 June)

Event Time Altitude Azimuth Distance (km) Brightness Sun altitude
Rises 22:53:53 0° 273° (W) 2,364 0.7 -14.0°
Reaches altitude 10° 22:56:02 10° 280° (W) 1,502 -0.3 -14.2°
Maximum altitude 22:59:18 46° 355° (N) 575 -2.7 -14.5°
Drops below altitude 10° 23:02:35 10° 71° (ENE) 1,506 -1.1 -14.8°
Enters shadow 23:03:59 - 76° (ENE) 2,066 -0.4 -14.9°
